K0CJC Weather Reports


Display with metric or nautical units.
time (UTC)temp
F
wind
direction
speed
MPH
gust
MPH
rain 1hr
in
rain 24hr
in
rain mn
in
humidity
%
barometer
mb
20260506154530 37 247 1.0 5.0 0.00 0.00 0.00 64
20260506153522 37 244 2.0 6.0 0.00 0.00 0.00 64
20260506152530 36 249 3.0 8.0 0.00 0.00 0.00 65
20260506151521 36 266 2.0 7.0 0.00 0.00 0.00 66
20260506150531 36 233 2.0 6.0 0.00 0.00 0.00 66
20260506145521 37 318 3.0 9.0 0.00 0.00 0.00 66
20260506144529 37 267 3.0 8.0 0.00 0.00 0.00 67
20260506143522 36 235 2.0 6.0 0.00 0.00 0.00 69
20260506142530 36 252 2.0 6.0 0.00 0.00 0.00 69
20260506141522 36 264 2.0 5.0 0.00 0.00 0.00 70
20260506140530 35 243 1.0 5.0 0.00 0.00 0.00 71
20260506135522 35 294 2.0 7.0 0.00 0.00 0.00 69
20260506134530 35 334 1.0 5.0 0.00 0.00 0.00 67
20260506133535 35 311 2.0 6.0 0.00 0.00 0.00 65
20260506132530 35 289 2.0 6.0 0.00 0.00 0.00 63
20260506131522 35 333 2.0 6.0 0.00 0.00 0.00 62
20260506130530 35 318 1.0 5.0 0.00 0.00 0.00 61
20260506125522 35 307 1.0 5.0 0.00 0.00 0.00 60
20260506124530 34 322 1.0 3.0 0.00 0.00 0.00 60
20260506123522 34 237 1.0 2.0 0.00 0.00 0.00 61
20260506122530 34 224 1.0 3.0 0.00 0.00 0.00 60
20260506121524 34 239 1.0 6.0 0.00 0.00 0.00 60
20260506120530 33 268 1.0 7.0 0.00 0.00 0.00 61
20260506115522 33 245 1.0 5.0 0.00 0.00 0.00 62
20260506114530 33 273 1.0 5.0 0.00 0.00 0.00 65
20260506113522 33 321 1.0 7.0 0.00 0.00 0.00 66
20260506112550 33 286 1.0 5.0 0.00 0.00 0.00 67
20260506111524 33 303 1.0 5.0 0.00 0.00 0.00 67
20260506110530 33 333 2.0 7.0 0.00 0.00 0.00 67
20260506105522 33 344 0.0 3.0 0.00 0.00 0.00 67
20260506104550 33 256 0.0 3.0 0.00 0.00 0.00 67
20260506103542 33 354 1.0 3.0 0.00 0.00 0.00 66
20260506102530 33 345 0.0 5.0 0.00 0.00 0.00 67
20260506101522 33 281 0.0 2.0 0.00 0.00 0.00 67
20260506100530 33 245 0.0 3.0 0.00 0.00 0.00 67
20260506095522 32 265 0.0 3.0 0.00 0.00 0.00 69
20260506094530 32 251 0.0 1.0 0.00 0.00 0.00 71
20260506093523 32 309 1.0 2.0 0.00 0.00 0.00 71
20260506092530 32 288 0.0 2.0 0.00 0.00 0.00 71
20260506091522 32 0.0 0.0 0.00 0.00 0.00 72
20260506090531 33 268 0.0 1.0 0.00 0.00 0.00 71
20260506085544 33 300 1.0 2.0 0.00 0.00 0.00 70
20260506084530 33 274 0.0 2.0 0.00 0.00 0.00 70
20260506083522 33 278 0.0 1.0 0.00 0.00 0.00 70
20260506082531 33 325 1.0 3.0 0.00 0.00 0.00 70
20260506081543 33 267 1.0 2.0 0.00 0.00 0.00 70
20260506080531 33 346 1.0 2.0 0.00 0.00 0.00 70
20260506073522 33 326 1.0 3.0 0.00 0.00 0.00 65
20260506072530 33 315 1.0 6.0 0.00 0.00 0.00 65
20260506071522 33 274 1.0 2.0 0.00 0.00 0.00 65
20260506070530 34 313 1.0 2.0 0.00 0.00 0.00 65
20260506061523 34 316 1.0 8.0 0.00 0.00 0.00 63
20260506060531 34 336 1.0 8.0 0.00 0.00 0.00 63
20260506050531 34 268 1.0 2.0 0.00 0.00 0.00 60
20260506044531 34 333 2.0 7.0 0.00 0.00 0.00 60
20260506043523 34 326 2.0 7.0 0.00 0.00 0.00 60
20260506042532 35 350 3.0 10.0 0.00 0.00 0.00 61
20260506041535 35 11 3.0 13.0 0.00 0.00 0.00 62
20260506040531 35 338 1.0 6.0 0.00 0.00 0.00 63
20260506035523 35 338 2.0 5.0 0.00 0.00 0.00 62
20260506034553 35 345 2.0 7.0 0.00 0.00 0.00 62
20260506033523 35 341 2.0 5.0 0.00 0.00 0.00 61
20260506032531 35 331 1.0 3.0 0.00 0.00 0.00 61
20260506031523 35 327 1.0 6.0 0.00 0.00 0.00 61
20260506030551 35 299 1.0 3.0 0.00 0.00 0.00 61
20260506025523 35 308 1.0 3.0 0.00 0.00 0.00 61
20260506024531 35 312 1.0 2.0 0.00 0.00 0.00 61
20260506023523 35 311 2.0 7.0 0.00 0.00 0.00 60
20260506022531 35 263 1.0 3.0 0.00 0.00 0.00 60
20260506021524 35 242 1.0 3.0 0.00 0.00 0.00 60
20260506020551 36 342 1.0 3.0 0.00 0.00 0.00 61
20260506015523 36 315 2.0 6.0 0.00 0.00 0.00 61
20260506014551 36 321 2.0 7.0 0.00 0.00 0.00 60
20260506013523 36 327 0.0 3.0 0.00 0.00 0.00 59
20260506012535 36 329 2.0 5.0 0.00 0.00 0.00 59
20260506011523 36 313 1.0 9.0 0.00 0.00 0.00 59
20260506010531 36 354 2.0 9.0 0.00 0.00 0.00 58
20260506005524 36 264 1.0 6.0 0.00 0.00 0.00 57
20260506004532 36 313 1.0 3.0 0.00 0.00 0.00 57
20260506003523 36 344 1.0 7.0 0.00 0.00 0.00 57
20260506002553 37 328 1.0 5.0 0.00 0.00 0.00 56
20260506001525 37 322 2.0 8.0 0.00 0.00 0.00 55
20260506000531 37 320 2.0 7.0 0.00 0.00 0.00 55
20260505235523 37 275 2.0 6.0 0.00 0.00 0.00 55
20260505234552 37 349 2.0 6.0 0.00 0.00 0.00 54
20260505233544 37 325 3.0 8.0 0.00 0.00 0.00 54
20260505232608 37 349 3.0 9.0 0.00 0.00 0.00 54
20260505231523 37 324 2.0 6.0 0.00 0.00 0.00 54
20260505230532 38 279 1.0 6.0 0.00 0.00 0.00 55
20260505225523 38 315 1.0 6.0 0.00 0.00 0.00 54
20260505224535 38 20 2.0 7.0 0.00 0.00 0.00 53
20260505223524 38 240 1.0 5.0 0.00 0.00 0.00 52
20260505222532 39 309 2.0 6.0 0.00 0.00 0.00 51
20260505221524 39 280 2.0 7.0 0.00 0.00 0.00 52
20260505220532 39 295 2.0 6.0 0.00 0.00 0.00 52
20260505215535 39 265 1.0 6.0 0.00 0.00 0.00 51
20260505214532 39 325 2.0 6.0 0.00 0.00 0.00 50
20260505213555 40 245 2.0 6.0 0.00 0.00 0.00 49
20260505212532 40 305 3.0 9.0 0.00 0.00 0.00 49
20260505211524 39 245 2.0 8.0 0.00 0.00 0.00 50
20260505210535 40 352 4.0 8.0 0.00 0.00 0.00 48
20260505205524 40 243 3.0 8.0 0.00 0.00 0.00 49
20260505204533 40 310 2.0 8.0 0.00 0.00 0.00 50
20260505203624 40 253 2.0 6.0 0.00 0.00 0.00 51
20260505202532 40 260 3.0 7.0 0.00 0.00 0.00 50
20260505201525 40 304 2.0 6.0 0.00 0.00 0.00 52
20260505200533 39 235 2.0 8.0 0.00 0.00 0.00 51
20260505195524 39 249 2.0 9.0 0.00 0.00 0.00 53
20260505194535 39 255 2.0 8.0 0.00 0.00 0.00 54
20260505193524 39 243 2.0 6.0 0.00 0.00 0.00 54
20260505192532 39 263 2.0 5.0 0.00 0.00 0.00 54
20260505191526 38 248 2.0 10.0 0.00 0.00 0.00 54
20260505190532 38 241 2.0 9.0 0.00 0.00 0.00 53
20260505185524 39 273 3.0 10.0 0.00 0.00 0.00 53
20260505184535 39 276 2.0 10.0 0.00 0.00 0.00 52
20260505183524 38 241 2.0 7.0 0.00 0.00 0.00 54
20260505182535 38 288 2.0 7.0 0.00 0.00 0.00 54
20260505181524 37 249 2.0 7.0 0.00 0.00 0.00 55
20260505180535 37 254 2.0 7.0 0.00 0.00 0.00 56
20260505175524 37 234 2.0 8.0 0.00 0.00 0.00 55
20260505174535 37 233 3.0 13.0 0.00 0.00 0.00 56
20260505173524 36 223 2.0 7.0 0.00 0.00 0.00 56
20260505172557 36 252 3.0 9.0 0.00 0.00 0.00 57
20260505171524 36 255 2.0 5.0 0.00 0.00 0.00 57
20260505170535 36 306 2.0 6.0 0.00 0.00 0.00 57
20260505165535 36 355 2.0 6.0 0.00 0.00 0.00 59
20260505164555 35 2 3.0 7.0 0.00 0.00 0.00 59
20260505163524 36 305 2.0 8.0 0.00 0.00 0.00 58
20260505162535 37 238 2.0 7.0 0.00 0.00 0.00 60
20260505161525 35 346 2.0 6.0 0.00 0.00 0.00 63
20260505160535 35 356 1.0 6.0 0.00 0.00 0.00 62